Flag Weather past 2 weeks in Rottenburg am Neckar, Baden-Württemberg, Germany

Now
41 °F

Low clouds.


Feels Like: 41 °F
Forecast: 35 / 48 °F
Wind: 2 mph from East

Location: Stuttgart-Echterdingen

Current Time: Nov 27, 2014 at 5:43:41 AM

Latest Report: Nov 27, 2014 at 5:00 AM


Visibility: 8 mi

Pressure: 29.88 "Hg

Humidity: 92%

Dew point: 39 °F

Location of Rottenburg am NeckarLocation

Historic Weather in Rottenburg am Neckar — Graph

°F

Rottenburg am Neckar temperature yesterday

Maximum temperature yesterday: 45 °F (at 1:00 PM)
Minimum temperature yesterday: 40 °F (at 7:00 AM)
Average temperature yesterday: 42 °F

Past Weeks' High & Low Weather Summary

 TemperatureHumidityPressure
High56 °F (Nov 22, 2:00 PM)100% (Nov 12, 5:00 AM)30.35 "Hg (Nov 12, 5:00 AM)
Low34 °F (Nov 23, 9:00 AM)65% (Nov 16, 3:00 PM)29.54 "Hg (Nov 16, 12:00 AM)
Average44 °F90%29.98 "Hg
* Reported Nov 12 3:00 AM — Nov 27 3:00 AM, Rottenburg am Neckar, Weather by CustomWeather, © 2014

Note: Actual official high and low records may vary slightly from our data, if they occured in-between our weather recording intervals... More about our weather records

Advertising

Rottenburg am Neckar weather history for previous 24 hours

 ConditionsComfort  
Time TempWeatherWind HumidityBarometerVisibility
3:00 AM
Nov 27
41 °FLow clouds.2 mph91%29.91 "Hg7 mi
2:00 AM41 °FLow clouds.1 mph91%29.93 "Hg8 mi
1:00 AM41 °FLow clouds.2 mph91%29.95 "Hg9 mi
12:00 AM41 °FOvercast.2 mph89%29.96 "Hg7 mi
11:00 PM
Nov 26
41 °FLow clouds.2 mph90%29.96 "Hg7 mi
9:00 PM41 °FOvercast.2 mph90%29.98 "Hg7 mi
8:00 PM42 °FOvercast.3 mph90%29.97 "Hg7 mi
7:00 PM42 °FOvercast.3 mph91%29.98 "Hg7 mi
6:00 PM42 °FOvercast.3 mph89%29.99 "Hg7 mi
5:00 PM42 °FOvercast.2 mph89%29.99 "Hg7 mi
3:00 PM44 °FOvercast.5 mph85%29.99 "Hg11 mi
2:00 PM45 °FOvercast.3 mph83%29.99 "Hg12 mi
1:00 PM45 °FOvercast.3 mph81%30.01 "Hg10 mi
12:00 PM43 °FOvercast.5 mph84%30.03 "Hg7 mi
11:00 AM42 °FOvercast.3 mph86%30.05 "Hg6 mi
9:00 AM40 °FOvercast.3 mph89%30.06 "Hg6 mi
8:00 AM40 °FOvercast.3 mph89%30.05 "Hg6 mi
7:00 AM40 °FOvercast.3 mph89%30.06 "Hg6 mi
6:00 AM40 °FOvercast.2 mph88%30.07 "Hg8 mi
5:00 AM41 °FOvercast.2 mph88%30.08 "Hg7 mi
Weather by CustomWeather, © 2014

See weather overviewHow to use our weather pages